Weather History for St. Joseph, MO

Change the Weather History Date:

Sunday, October 13, 2013

  Actual Average Record
Temperature  
Mean Temperature 54 °F 56 °F  
Max Temperature 71 °F 68 °F 90 °F (1975)
Min Temperature 36 °F 44 °F 24 °F (2006)
Degree Days  
Heating Degree Days 11 10  
Month to date heating degree days 69 105  
Since 1 July heating degree days 107 185  
Cooling Degree Days 0 1  
Month to date cooling degree days 26 18  
Year to date cooling degree days 1285 1217  
Growing Degree Days 2 (Base 50)    
Moisture  
Dew Point 37 °F    
Average Humidity 63    
Maximum Humidity 100    
Minimum Humidity 26    
Precipitation  
Precipitation 0.00 in 0.10 in 1.94 in (1981)
Month to date precipitation 2.04 1.20  
Year to date precipitation 25.26 30.92  
Sea Level Pressure  
Sea Level Pressure 30.35 in    
Wind  
Wind Speed 4 mph (East)    
Max Wind Speed 15 mph    
Max Gust Speed 18 mph    
Visibility 7 miles    
Events      
T = Trace of Precipitation, MM = Missing Value Source: NWS Daily Summary

Daily Weather History Graph

Daily Weather History Graph

Search for Another Location

Airport:

Trip Planner

Search our weather history database for the weather conditions in past years. The results will help you decide how hot, cold, wet, or windy it might be!

Date:

Astronomy

Oct. 13, 2013 Rise Set
Actual Time 7:28 AM CDT 6:42 PM CDT
Civil Twilight 7:00 AM CDT 7:09 PM CDT
Nautical Twilight 6:29 AM CDT 7:41 PM CDT
Astronomical Twilight 5:58 AM CDT 8:12 PM CDT
Moon 3:34 PM CDT (10/13) 1:39 AM CDT (10/13)
Length of Visible Light 12h 09m
Length of Day
11h 14m
Waxing Gibbous, 69% of the Moon is Illuminated
Oct 13
Waxing Gibbous
Oct 18
Full
Oct 26
Last Quarter
Nov 3
New
Nov 9
First Quarter

Hourly Weather History & Observations

Time (CDT) Temp. Windchill Dew Point Humidity Pressure Visibility Wind Dir Wind Speed Gust Speed Precip Events Conditions
12:53 AM 43.0 °F - 39.9 °F 89% 30.30 in 10.0 mi Calm Calm - N/A   Clear
1:53 AM 42.1 °F - 39.0 °F 89% 30.31 in 6.0 mi Calm Calm - N/A   Clear
2:07 AM 41.0 °F - 37.4 °F 87% 30.32 in 2.5 mi Calm Calm - N/A   Clear
2:16 AM 39.2 °F - 37.4 °F 93% 30.32 in 6.0 mi Calm Calm - N/A   Clear
2:53 AM 41.0 °F - 39.0 °F 93% 30.33 in 9.0 mi Calm Calm - N/A   Clear
3:53 AM 39.0 °F 36.8 °F 37.0 °F 93% 30.32 in 6.0 mi North 3.5 mph - N/A   Clear
4:46 AM 39.2 °F - 37.4 °F 93% 30.33 in 2.0 mi Calm Calm - N/A   Clear
4:53 AM 37.9 °F - 37.0 °F 97% 30.34 in 3.0 mi Calm Calm - N/A   Clear
5:53 AM 39.9 °F - 39.0 °F 97% 30.34 in 2.5 mi Calm Calm - N/A   Clear
6:02 AM 37.4 °F - 35.6 °F 93% 30.34 in 1.2 mi Calm Calm - N/A   Clear
6:28 AM 39.2 °F - 35.6 °F 87% 30.35 in 3.0 mi Calm Calm - N/A   Clear
6:36 AM 39.2 °F - 37.4 °F 93% 30.35 in 1.8 mi Calm Calm - N/A   Clear
6:49 AM 35.6 °F - 35.6 °F 100% 30.36 in 3.0 mi Calm Calm - N/A   Clear
6:53 AM 37.0 °F - 35.1 °F 93% 30.37 in 6.0 mi Calm Calm - N/A   Clear
7:21 AM 37.4 °F - 35.6 °F 93% 30.37 in 1.8 mi Calm Calm - N/A   Clear
7:30 AM 37.4 °F - 35.6 °F 93% 30.37 in 3.0 mi Calm Calm - N/A   Clear
7:39 AM 37.4 °F - 35.6 °F 93% 30.38 in 2.5 mi Calm Calm - N/A   Clear
7:48 AM 37.4 °F - 35.6 °F 93% 30.38 in 10.0 mi Calm Calm - N/A   Clear
7:53 AM 39.0 °F - 37.0 °F 93% 30.40 in 10.0 mi Calm Calm - N/A   Clear
8:12 AM 42.8 °F - 39.2 °F 87% 30.39 in 1.8 mi Calm Calm - N/A   Clear
8:22 AM 44.6 °F - 41.0 °F 87% 30.40 in 10.0 mi Calm Calm - N/A   Clear
8:53 AM 48.9 °F - 43.0 °F 80% 30.42 in 10.0 mi Calm Calm - N/A   Clear
9:53 AM 55.9 °F - 37.0 °F 49% 30.43 in 10.0 mi East 5.8 mph - N/A   Clear
10:53 AM 60.1 °F - 37.0 °F 42% 30.43 in 10.0 mi East 5.8 mph - N/A   Clear
11:53 AM 64.9 °F - 36.0 °F 34% 30.42 in 10.0 mi East 8.1 mph - N/A   Clear
12:53 PM 66.9 °F - 33.1 °F 28% 30.41 in 10.0 mi East 10.4 mph - N/A   Clear
1:53 PM 69.1 °F - 34.0 °F 27% 30.38 in 10.0 mi East 8.1 mph - N/A   Clear
2:53 PM 70.0 °F - 34.0 °F 27% 30.35 in 10.0 mi East 10.4 mph - N/A   Clear
3:53 PM 70.0 °F - 35.1 °F 28% 30.32 in 10.0 mi East 10.4 mph - N/A   Clear
4:53 PM 69.1 °F - 35.1 °F 29% 30.31 in 10.0 mi East 10.4 mph - N/A   Clear
5:53 PM 66.9 °F - 35.1 °F 31% 30.30 in 10.0 mi East 6.9 mph - N/A   Clear
6:53 PM 62.1 °F - 35.1 °F 37% 30.32 in 10.0 mi East 4.6 mph - N/A   Clear
7:53 PM 57.9 °F - 36.0 °F 44% 30.32 in 10.0 mi East 5.8 mph - N/A   Clear
8:53 PM 57.9 °F - 36.0 °F 44% 30.32 in 10.0 mi East 5.8 mph - N/A   Clear
9:53 PM 55.0 °F - 36.0 °F 49% 30.33 in 10.0 mi ESE 4.6 mph - N/A   Clear
10:53 PM 54.0 °F - 36.0 °F 51% 30.32 in 10.0 mi East 4.6 mph - N/A   Clear
11:53 PM 51.1 °F - 36.0 °F 56% 30.32 in 10.0 mi Calm Calm - N/A   Clear